Home > Weather > Owen Sound > Past weeks

Flag for Canada Weather for the Past 2 Weeks in Owen Sound, Ontario, Canada

Now
43 °F

Light rain. Overcast.


Feels Like: 36 °F
Forecast: 41 / 47 °F
Wind: 13 mph from East

Location: Wiarton

Current Time: May 1, 2016 at 8:40:26 AM

Latest Report: May 1, 2016 at 8:00 AM


Visibility: 6 mi

Pressure: 30.07 "Hg

Humidity: 87%

Dew Point: 39 °F

Location of Owen SoundLocation

Historic Weather in Owen Sound — Graph

°F

Owen Sound Temperature Yesterday

Maximum temperature yesterday: 61 °F (at 3:00 PM)
Minimum temperature yesterday: 28 °F (at 6:00 AM)
Average temperature yesterday: 45 °F

High & Low Weather Summary for the Past Weeks

 TemperatureHumidityPressure
High68 °F (Apr 17, 2:00 PM)100% (Apr 19, 12:00 AM)30.50 "Hg (Apr 19, 12:00 AM)
Low28 °F (Apr 27, 2:00 AM)24% (Apr 19, 4:00 PM)29.77 "Hg (Apr 26, 4:00 AM)
Average44 °F65%30.15 "Hg
* Reported Apr 16 7:00 AM — May 1 7:00 AM, Owen Sound, Weather by CustomWeather, © 2016

Note: Actual official high and low records may vary slightly from our data, if they occured in-between our weather recording intervals... More about our weather records

Advertising

Owen Sound Weather History for the Previous 24 Hours

Scroll right to see more
 ConditionsComfort  
Time TempWeatherWind HumidityBarometerVisibility
7:00 AM
Sun, May 1
45 °FLight rain. Mostly cloudy.15 mph76%30.06 "Hg6 mi
6:00 AM45 °FLight rain. Overcast.12 mph76%30.03 "Hg8 mi
5:00 AM46 °FLight rain. Overcast.10 mph57%30.03 "Hg10 mi
4:56 AM48 °FLight rain. Overcast.12 mph54%30.03 "Hg10 mi
4:00 AM50 °FOvercast.13 mph40%30.05 "Hg15 mi
3:00 AM50 °FOvercast.9 mph40%30.06 "Hg15 mi
2:00 AM45 °FOvercast.6 mph57%30.08 "Hg15 mi
1:00 AM45 °FOvercast.No wind57%30.09 "Hg15 mi
12:00 AM46 °FOvercast.9 mph50%30.10 "Hg15 mi
11:00 PM
Sat, Apr 30
45 °FOvercast.2 mph57%30.11 "Hg15 mi
10:00 PM46 °FOvercast.7 mph50%30.13 "Hg15 mi
9:00 PM46 °FOvercast.2 mph50%30.13 "Hg15 mi
8:00 PM50 °FOvercast.5 mph43%30.12 "Hg15 mi
7:00 PM55 °FMore clouds than sun.12 mph33%30.12 "Hg15 mi
6:00 PM55 °FOvercast.15 mph31%30.13 "Hg15 mi
5:00 PM57 °FOvercast.15 mph29%30.14 "Hg15 mi
4:00 PM59 °FPartly sunny.20 mph29%30.14 "Hg15 mi
3:00 PM61 °FPartly sunny.15 mph27%30.17 "Hg15 mi
2:00 PM59 °FHigh level clouds.14 mph29%30.18 "Hg15 mi
1:45 PM59 °FHigh level clouds.16 mph29%30.18 "Hg15 mi
1:00 PM55 °FPartly sunny.8 mph44%30.19 "Hg15 mi
12:00 PM55 °FPartly sunny.5 mph33%30.19 "Hg15 mi
11:00 AM50 °FPassing clouds.8 mph50%30.21 "Hg15 mi
10:00 AM46 °FSunny.6 mph62%30.22 "Hg15 mi
9:00 AM43 °FSunny.3 mph61%30.22 "Hg15 mi
8:00 AM41 °FSunny.3 mph70%30.21 "Hg15 mi
Weather by CustomWeather, © 2016

See weather overviewHow to use our weather pages